Regional Weather Roundup
Issued by NWS

Home | Current Version | Previous Version | Graphics & Text | Print | Product List | Glossary On
Versions: 1 2 3 4 5 6 7 8 9 10 11 12 13 14 15 16 17 18 19 20 21 22 23 24 25 26 27 28 29 30 31 32 33 34 35 36 37 38 39 40 41 42 43 44 45 46 47 48 49 50
000
ASUS43 KTOP 231359
RWRKS

WEATHER ROUNDUP FOR KANSAS
NATIONAL WEATHER SERVICE GOODLAND KS
800 AM CST MON JAN 23 2017

NOTE:  "FAIR" INDICATES FEW OR NO CLOUDS BELOW 12,000 FEET WITH NO
SIGNIFICANT WEATHER AND/OR OBSTRUCTIONS TO VISIBILITY.

KSZ001>006-013>018-027>032-041>047-231500-
NORTHWEST KANSAS

CITY           SKY/WX    TMP DP  RH WIND       PRES   REMARKS
GOODLAND       CLEAR     26  23  88 S9        29.72F
HILL CITY      CLEAR     22  21  96 CALM      29.82S
RUSSELL        PTCLDY    28  25  88 NW3       29.83R
$$

KSZ061>065-074>080-084>089-231500-
SOUTHWEST KANSAS

CITY           SKY/WX    TMP DP  RH WIND       PRES   REMARKS
DODGE CITY     PTCLDY    34  29  82 SW6       29.82R
ELKHART          N/A     29  18  64 S7          N/A
GARDEN CITY    PTCLDY    30  26  85 SW6       29.81R
GREAT BEND     CLOUDY    28  26  92 CALM      29.86R
LIBERAL          N/A     30  25  80 S10       29.79R WCI  21
$$

KSZ066>073-081>083-090>101-231500-
SOUTHEAST KANSAS

CITY           SKY/WX    TMP DP  RH WIND       PRES   REMARKS
CHANUTE        CLEAR     25  24  96 CALM      29.91S FOG
COFFEYVILLE    CLEAR     29  29 100 CALM      29.93S FOG
HUTCHINSON     PTCLDY    27  24  89 E3        29.86F
MEDICINE LODGE   N/A     25  22  88 CALM      29.86F
NEWTON         CLEAR     29  28  96 S6        29.86F
PARSONS        PTCLDY    26  24  92 CALM      29.93S
WICHITA INTL   MOCLDY    27  25  92 S6        29.88F
WICHITA JABRA  CLOUDY    29  28  96 S6        29.87F
WINFIELD       PTCLDY    29  27  92 S3        29.91F
$$

KSZ007>012-019>026-033>040-048>060-102>105-231500-
NORTHEAST KANSAS

CITY           SKY/WX    TMP DP  RH WIND       PRES   REMARKS
CONCORDIA      CLEAR     23  23 100 CALM      29.86S
EMPORIA        CLEAR     26  26 100 CALM      29.87F FOG
LAWRENCE       FOG       23  23 100 N3        29.91S VSB 1/2
MANHATTAN      CLEAR     22  20  92 CALM      29.90R
OLATHE IND     FOG       28  28 100 N5        29.90S VSB 1/2
OLATHE EXE     FOG       29  29 100 N8        29.89S VSB 1/4
SALINA         PTCLDY    28  25  88 S5        29.88F
TOPEKA BILLARD FOG       26  22  84 CALM      29.90F VSB 1/2
TOPEKA FORBES  PTCLDY    26  23  88 CALM      29.89F
$$




USA.gov is the U.S. government's official web portal to all federal, state and local government web resources and services.